Date,TemperatureHighF,TemperatureAvgF,TemperatureLowF,DewpointHighF,DewpointAvgF,DewpointLowF,HumidityHigh,HumidityAvg,HumidityLow,PressureMaxIn,PressureMinIn,WindSpeedMaxMPH,WindSpeedAvgMPH,GustSpeedMaxMPH,PrecipitationSumIn
2013-3-1,61,40,25,-100,-100,-100,0,0,100,0.00,40.00,0,-999,0,0.00
2013-3-2,63,41,27,-100,-100,-100,0,0,100,0.00,40.00,0,-999,0,0.00
2013-3-3,50,44,37,-100,-100,-100,0,0,100,0.00,40.00,0,-999,0,0.00
2013-3-4,50,39,28,-100,-100,-100,0,0,100,0.00,40.00,0,-999,0,0.00
2013-3-5,61,42,21,-100,-100,-100,0,0,100,0.00,40.00,0,-999,0,0.00
2013-3-6,45,39,32,-100,-100,-100,0,0,100,0.00,40.00,0,-999,0,0.00
2013-3-7,39,32,28,-100,-100,-100,0,0,100,0.00,40.00,0,-999,0,0.00
2013-3-8,45,33,23,-100,-100,-100,0,0,100,0.00,40.00,0,-999,0,0.00
2013-3-9,50,38,28,-100,-100,-100,0,0,100,0.00,40.00,0,-999,0,0.00
2013-3-10,52,38,18,-100,-100,-100,0,0,100,0.00,40.00,0,-999,0,0.00
2013-3-11,61,42,21,-100,-100,-100,0,0,100,0.00,40.00,0,-999,0,0.00
2013-3-12,66,44,23,-100,-100,-100,0,0,100,0.00,40.00,0,-999,0,0.00
2013-3-13,72,52,30,-100,-100,-100,0,0,100,0.00,40.00,0,-999,0,0.00
2013-3-14,64,49,36,-100,-100,-100,0,0,100,0.00,40.00,0,-999,0,0.00
2013-3-15,68,50,28,-100,-100,-100,0,0,100,0.00,40.00,0,-999,0,0.00
2013-3-16,64,52,32,-100,-100,-100,0,0,100,0.00,40.00,0,-999,0,0.00
2013-3-17,59,48,34,-100,-100,-100,0,0,100,0.00,40.00,0,-999,0,0.00
2013-3-18,57,44,23,-100,-100,-100,0,0,100,0.00,40.00,0,-999,0,0.00
2013-3-19,61,51,43,-100,-100,-100,0,0,100,0.00,40.00,0,-999,0,0.00
2013-3-20,59,50,43,-100,-100,-100,0,0,100,0.00,40.00,0,-999,0,0.00
2013-3-21,50,40,32,-100,-100,-100,0,0,100,0.00,40.00,0,-999,0,0.00
2013-3-22,45,34,23,-100,-100,-100,0,0,100,0.00,40.00,0,-999,0,0.00
2013-3-23,46,29,16,-100,-100,-100,0,0,100,0.00,40.00,0,-999,0,0.00
2013-3-24,55,36,19,-100,-100,-100,0,0,100,0.00,40.00,0,-999,0,0.00
2013-3-25,64,48,27,-100,-100,-100,0,0,100,0.00,40.00,0,-999,0,0.00
2013-3-26,63,50,34,-100,-100,-100,0,0,100,0.00,40.00,0,-999,0,0.00
2013-3-27,61,49,30,-100,-100,-100,0,0,100,0.00,40.00,0,-999,0,0.00
2013-3-28,59,50,45,-100,-100,-100,0,0,100,0.00,40.00,0,-999,0,0.00
2013-3-29,66,52,36,-100,-100,-100,0,0,100,0.00,40.00,0,-999,0,0.00
2013-3-30,70,51,37,-100,-100,-100,0,0,100,0.00,40.00,0,-999,0,0.00
2013-3-31,52,45,34,-100,-100,-100,0,0,100,0.00,40.00,0,-999,0,0.00